Main page
METAR-TAF:

METAR-TAF

Airports :

Jordan Airport

Jordan, Montana, United States

latitude: 47-19-33N, longitude: 106-56-51W, elevation: 2660 ft

Current weather observation

The report was made 31 minutes ago, at 22:48 UTC
Wind 10 mph from the East
Temperature 91°F
Humidity 20%
Pressure 30.10 in. Hg

METAR: KJDN 092248Z AUTO 08009KT 33/07 A3010 RMK AO1 SLP178 T03280072

Time: 17:19 (23:19 UTC)


TAF: missing

Weather observations and forecasts of more than 4000 airports (METAR and TAF reports).

The available stations are represented by yellow and red dots on the map.

Hover mouse over dot to see the name of the station.

Then click to see weather observations and forecasts.

To change the map : click on the green buttons with a black cross to zoom in, on the green button with a dash to zoom out, or on the green arrows for adjacent maps.


METAR-TAF: